CST,Max TemperatureF,Mean TemperatureF,Min TemperatureF,Max Dew PointF,MeanDew PointF,Min DewpointF,Max Humidity, Mean Humidity, Min Humidity, Max Sea Level PressureIn, Mean Sea Level PressureIn, Min Sea Level PressureIn, Max VisibilityMiles, Mean VisibilityMiles, Min VisibilityMiles, Max Wind SpeedMPH, Mean Wind SpeedMPH, Max Gust SpeedMPH,PrecipitationIn, CloudCover, Events, WindDirDegrees
2013-11-1,48,42,36,43,39,34,97,83,71,29.77,29.57,29.38,10,9,4,17,10,24,0.02,7,Rain,279
2013-11-2,48,38,26,36,32,24,93,75,56,30.17,29.99,29.79,10,9,5,13,8,17,0.00,5,,302
2013-11-3,52,38,24,36,27,21,100,80,45,30.28,30.22,30.14,10,6,0,16,2,22,0.00,1,Fog,126
2013-11-4,53,48,44,45,39,34,80,67,59,30.14,30.08,30.00,10,10,10,16,10,26,0.00,5,,175
2013-11-5,55,48,42,53,48,39,96,89,76,30.25,30.06,29.80,10,4,1,17,5,28,0.86,8,Rain,114
2013-11-6,57,44,32,54,39,20,94,80,41,30.20,29.88,29.71,10,7,2,17,12,25,0.17,6,Rain,288
2013-11-7,41,32,24,30,27,21,92,77,61,30.26,30.21,30.19,10,9,6,12,4,,0.00,4,,292
2013-11-8,50,34,21,34,24,18,100,80,50,30.29,30.17,29.75,10,5,0,17,3,31,0.00,3,Fog-Rain,124
2013-11-9,51,45,37,40,34,24,76,61,49,30.14,29.89,29.73,10,10,10,30,15,39,0.00,5,,272
2013-11-10,48,42,36,30,29,26,73,59,46,30.34,30.24,30.13,10,10,10,17,10,29,0.00,5,,254
2013-11-11,45,34,21,34,25,11,93,74,56,30.63,30.28,30.06,10,7,1,16,8,25,0.08,6,Rain-Snow,320
2013-11-12,30,24,17,14,12,10,77,66,51,30.77,30.69,30.59,10,10,10,12,7,18,0.00,0,,277
2013-11-13,44,29,14,20,15,9,84,54,36,30.57,30.29,30.05,10,10,10,17,4,23,0.00,0,,224
2013-11-14,46,36,25,32,25,18,75,57,46,30.03,29.93,29.87,10,10,10,13,5,17,0.00,2,Rain,227
2013-11-15,55,40,26,39,31,23,88,70,49,29.92,29.88,29.84,10,10,6,10,3,,0.00,1,,175
2013-11-16,61,49,37,55,47,33,94,88,76,29.82,29.57,29.40,10,5,2,23,10,32,0.16,7,Rain-Thunderstorm,156
2013-11-17,59,49,39,55,46,29,100,85,66,29.73,29.40,29.21,10,7,1,28,10,37,0.78,7,Rain-Thunderstorm,294
2013-11-18,39,34,26,29,24,20,81,65,50,30.30,30.03,29.75,10,10,10,24,18,33,0.00,4,,291
2013-11-19,43,31,19,28,23,15,89,73,45,30.36,30.28,30.21,10,10,8,10,3,,0.00,0,,119
2013-11-20,41,38,35,36,31,27,93,79,57,30.21,30.12,30.06,10,7,2,13,9,21,0.04,8,Rain-Snow,135
2013-11-21,43,41,36,37,36,32,93,86,76,30.30,30.17,30.09,10,4,2,14,2,20,0.00,8,,344
2013-11-22,36,30,23,30,22,15,87,72,44,30.51,30.44,30.32,10,8,2,16,10,22,0.01,4,Snow,320
2013-11-23,25,18,12,15,5,1,72,56,46,30.78,30.68,30.46,10,10,9,20,11,26,0.00,2,Snow,318
2013-11-24,28,17,6,7,4,1,83,55,31,30.74,30.55,30.26,10,10,10,16,6,23,0.00,0,,228
2013-11-25,33,28,23,26,20,6,86,74,41,30.23,30.08,30.00,10,7,1,14,10,23,0.02,7,Snow,235
2013-11-26,34,24,15,26,15,1,79,62,44,30.29,30.12,30.03,10,9,2,20,8,26,0.00,6,Snow,314
2013-11-27,27,20,12,13,8,2,71,61,49,30.33,30.27,30.21,10,10,10,14,7,,0.00,2,,277
2013-11-28,32,25,18,16,13,11,84,61,50,30.53,30.29,30.14,10,10,10,9,4,,0.00,6,,310
2013-11-29,30,20,9,20,14,4,88,71,54,30.63,30.51,30.32,10,9,6,12,4,,0.00,0,,147
2013-11-30,44,34,25,29,24,19,89,72,53,30.29,30.13,30.03,10,8,6,9,3,,0.00,1,,203